Find Starlink 32626

NORAD ID: 62123 Int'l Des: 2024-222 Owner: SPXS Country: US Constellation: starlink operational
LEOCIRCULAR

現在のビュー

3D地球を読み込み中...

About Starlink 32626

Starlink 32626 (NORAD 62123) is a starlink constellation satellite (v2 mini) launched Nov 27, 2024 by SPXS of US. It operates in LEO, CIRCULAR orbit with a mass of 730.00 kg.

次回通過

Passes for default location (London). Set your location on the main map for personalized predictions.

高度履歴

Loading altitude history...

軌道要素

1 62123U 24222K 26221.74050929 .00009256 00000-0 34517-3 0 9990
2 62123 43.0029 352.0457 0001521 271.6156 88.4522 15.27607255 96157
Epoch: Aug 9, 2026 • Age: 17 hours

現在のステータス

高度 490.6 km
遠地点 / 近地点 N/A
速度 7.62 km/s
衛星直下点 -31.30°S, 173.61°W
打ち上げ日 Nov 27, 2024
運用期間 1.7 years
タイプ internet

技術仕様

分類 Payload
質量 730.00 kg
乾燥質量 700.00 kg
総質量 730.00 kg
長さ 0.30 m
直径 4.10 m
スパン 29.00 m
形状 Box + pan
製造者 SPXS
バスタイプ Starlink V2M
フェーズステータス In Orbit
所有者/国 SPXS/US

Most Searched